Showing default

METEOSAT 12 (MTG I1), 54743

Orbit data source: Space-Track

METEOSAT 12 (MTG I1), 54743 is a payload satellite owned by EUMETSAT (DE) in GEO that was launched on Tue, 13 Dec 2022 UTC via an ARIANE 5ECA+ launch vehicle from the French Guiana (FRGUI). Payload-class satellites include a variety of spacecraft equipped with specific instruments for various scientific and technological missions. These include communications satellites like Starlink; space stations such as the ISS; scientific satellites like the Hubble; Earth observation satellites from companies like Planet Labs, Umbra, and HawkEye 360; GPS; miniature CubeSats for education and research; and military/defense satellites.

Not visible in the next 10 days
Identifier
54743, 2022-170C
Orbit
GEO
Country
Flag of DEDE / EUME
Related business
Manufacturer
Thales Alenia
Mission
Operational Civil Weather
Bus & Motor
MTG, S400 X2
Mass
3,760 kg wet, ~2,500 kg dry
Launch date (UTC)
2022-12-13 (4 years ago)
Launch vehicle
ARIANE 5ECA+
Launch site
French Guiana (FRGUI)
Object type
Payload
Rocket body
Debris
Shape & HBR
Box + 2 Pan, 5.0 m
Radar Cross Section
19.366 m², Large (>1 m²)

Expand to show TLE details & history
Last TLE update: 2 days ago

TLE from 2 days ago
0 METEOSAT 12 (MTG I1)
1 54743U 22170C   26171.24937015 -.00000013  00000-0  00000+0 0  9997
2 54743   0.7421  23.5307 0003320  70.9892 263.3203  1.00273524 13009
Epoch: 2026-06-20T05:59Z
TLE epoch observation values (Epoch: 2026-06-20T05:59:05.580Z)
Latitude
-0.3237°
Longitude
-0.42335°
Altitude
35,787.266 km
Speed
3.075 km/s
True Right ascension
23h 51m 15s
True Declination
0° 19' 24"
Sunlit
Object was in daylight at epoch
Visualization orbit readout
Latitude
Unknown
Longitude
Unknown
Altitude
Unknown
Speed
Unknown
Apparent Right ascension
Unknown
Apparent Declination
Unknown
Sunlit
N/A
Visualization observer readout
Local Sidereal Time
21:54:59
Azimuth
Unknown
Elevation
Unknown
Doppler factor
Unknown
Orbital elements
Apogee altitude
35,801.176 km
Perigee altitude
35,773.179 km
Semi-major axis
42,165.315 km
Eccentricity
0.00033
Inclination
0.7421°
RAAN
23.5307°
Arg. of periapsis
70.9892°
True anomaly
263.28252°
Mean anomaly
263.3203°
Eccentric anomaly
263.30141°
Mean motion
0.25067 °/min
Orbital period
1,436.13 mins
BSTAR
0
Loading maneuver chart data...
Computing Atmospheric mass density...
Loading historical data...
Loading historical data...
Loading historical data...
Loading historical data...
Loading historical data...
Loading historical data...
Loading historical data...
Other satellites on launch #170 in the year 2022 (2022-12-13 UTC)

Documentation

Showing up to 5 results
|